Regional Weather Roundup
Issued by NWS

Home | Current Version | Previous Version | Text Only | Print | Product List | Glossary On
Versions: 1 2 3 4 5 6 7 8 9 10 11 12 13 14 15 16 17 18 19 20 21 22 23 24 25 26 27 28 29 30 31 32 33 34 35 36 37 38 39 40 41 42 43 44 45 46 47 48 49 50
000
ASUS45 KPSR 200110
RWRAZ

ARIZONA REGIONAL HOURLY WEATHER ROUNDUP
NATIONAL WEATHER SERVICE PHOENIX AZ
600 PM MST SAT APR 19 2014

NOTE: FAIR INDICATES FEW OR NO CLOUDS BELOW 12,000 FEET WITH NO
SIGNIFICANT WEATHER AND/OR OBSTRUCTIONS TO VISIBILITY.

AZZ001>003-036-200200-
NORTHWEST ARIZONA

CITY           SKY/WX    TMP DP  RH WIND       PRES   REMARKS
BULLHEAD CITY  MOSUNNY   88  37  16 SW8       29.83F
KINGMAN        PTSUNNY   75  36  24 SW13      29.98R
$$

AZZ004>008-015-016-018-200200-
NORTH CENTRAL ARIZONA

CITY           SKY/WX    TMP DP  RH WIND       PRES   REMARKS
GRAND CANYON   MOSUNNY   54  41  61 E9        30.15S
WILLIAMS       PTSUNNY   57  32  38 SW7       30.19S
PRESCOTT       MOSUNNY   66  32  28 W12       30.06R
FLAGSTAFF      PTSUNNY   53  32  44 CALM      30.15R
PAYSON         MOSUNNY   63  37  39 VRB5      30.09R
PAGE           MOSUNNY   69  34  27 SW10G20   30.00R
$$

AZZ009>014-017-200200-
NORTHEAST ARIZONA

CITY           SKY/WX    TMP DP  RH WIND       PRES   REMARKS
WINSLOW        PTSUNNY   61  41  47 S23       30.06R
SAINT JOHNS    MOCLDY    54  41  61 SW16      30.10F
WINDOW ROCK    CLOUDY    50  40  68 SE12      30.15R
SHOW LOW       CLOUDY    46  39  76 SE6       30.16F
$$

AZZ023-200200-
GREATER PHOENIX AREA

CITY           SKY/WX    TMP DP  RH WIND       PRES   REMARKS
PHOENIX        FAIR      86  36  16 NW3       29.86S
BUCKEYE          N/A     84  39  20 W13       29.88R
GLENDALE       MOSUNNY   86  36  16 S6        29.88S
LUKE AFB       NOT AVBL
DEER VALLEY    MOSUNNY   83  33  16 SW9       29.88S
SCOTTSDALE     MOSUNNY   82  39  21 VRB6      29.90S
MESA-FALCON    MOSUNNY   82  37  20 E6        29.89S
MESA-GATEWAY   PTSUNNY   81  34  18 S9        29.91S
CHANDLER       PTSUNNY   82  43  24 E6        29.89S
$$

AZZ027-028-200200-
SOUTHWEST MARICOPA COUNTY AND PINAL COUNTY

CITY           SKY/WX    TMP DP  RH WIND       PRES   REMARKS
CASA GRANDE    SUNNY     82  36  18 CALM      29.91R
GILA BEND      PTCLDY    84  37  18 S10       29.88
$$

AZZ503-504-507>509-200200-
SOUTHEAST ARIZONA

CITY           SKY/WX    TMP DP  RH WIND       PRES   REMARKS
TUCSON         PTSUNNY   79  31  17 W6        29.97R
DAVIS-MONTHAN  PTSUNNY   77  36  22 NW9       29.96R
RYAN FIELD       N/A     79  37  22 N7        29.96R
NOGALES        CLOUDY    66  38  35 SE8G20    30.03R
SIERRA VISTA   LGT RAIN  63  39  41 MISG      30.07R
DOUGLAS        CLOUDY    57  46  66 NE17      30.05F
SAFFORD        MOCLDY    69  37  30 E9        30.00R
$$

AZZ020-021-025-026-031-200200-
SOUTHWEST ARIZONA

CITY           SKY/WX    TMP DP  RH WIND       PRES   REMARKS
YUMA           SUNNY     88  40  18 W9        29.85S
$$

CAZ031-033-041-043-047-048-061-200200-
SOUTHERN CALIFORNIA

CITY           SKY/WX    TMP DP  RH WIND       PRES   REMARKS
DOWNTOWN L.A.  SUNNY     66  53  63 W6        29.98R
L.A. AIRPORT   MOSUNNY   64  55  72 W14       29.99S
SAN DIEGO      PTSUNNY   66  54  65 NW9       30.01S
BURBANK        SUNNY     71  54  54 S8        29.96R
ONTARIO        MOSUNNY   76  50  40 W13G21    29.96R
RIVERSIDE      SUNNY     75  51  43 W9        29.96R
PALM SPRINGS   FAIR      90  41  18 NE7       29.86S
EL CENTRO NAS  SUNNY     89  37  16 CALM      29.83F
IMPERIAL       SUNNY     88  40  18 NW5       29.83S
BLYTHE         SUNNY     88  43  20 S8        29.84F
NEEDLES        SUNNY     88  36  15 SW8       29.84F
$$

NVZ020-UTZ003-200200-
SOUTHERN NEVADA-UTAH

CITY           SKY/WX    TMP DP  RH WIND       PRES   REMARKS
LAS VEGAS      PTSUNNY   83  29  14 S8        29.85S
SALT LAKE CITY PTSUNNY   70  36  28 CALM      29.96F
$$

NMZ009-TXZ055-200200-
NEW MEXICO-WEST TEXAS

CITY           SKY/WX    TMP DP  RH WIND       PRES   REMARKS
ALBUQUERQUE    CLOUDY    59  41  51 CALM      30.09R
EL PASO        CLOUDY    59  50  72 NW13      30.07R
$$


........................KEY........................
SKY/WX - SKY CONDITION/WEATHER
TMP    - TEMPERATURE IN FAHRENHEIT
DP     - DEW POINT IN FAHRENHEIT
RH     - RELATIVE HUMIDITY IN PERCENT
WIND   - DIRECTION AND SPEED IN MILES PER HOUR (MPH)
VRB    - VARIABLE WIND DIRECTION
PRES   - MEAN SEA LEVEL PRESSURE IN INCHES OF MERCURY
         F - FALLING PRESSURE   R - RISING PRESSURE
         S - STEADY PRESSURE
VSB    - VISIBILITY IN MILES
HX     - HEAT INDEX IN FAHRENHEIT
WCI    - WIND CHILL INDEX IN FAHRENHEIT
TC     - TEMPERATURE IN CELSIUS WHICH IS ALSO KNOWN AS
         TEMPERATURE IN CENTIGRADE
AFB    - AIR FORCE BASE
         LUKE AFB IS LUKE AIR FORCE BASE
         DAVIS-MONTHAN IS DAVIS-MONTHAN AIR FORCE BASE
NAS    - NAVAL AIR STATION
         EL CENTRO NAS IS EL CENTRO NAVAL AIR STATION
N/A    - NOT AVAILABLE



USA.gov is the U.S. government's official web portal to all federal, state and local government web resources and services.